Meteo Giornale » Osservazioni meteo Francia » Pontoise Cormeilles-en-Vexin
ore: 23:30 - Osservazioni Meteo Pontoise Cormeilles-en-Vexin
Lat. 49° 6' N Lon. 2° 2' E Alt. 99 metri s.l.m.
15 °C
Sereno
Temp. 24 Ore
12 °C
24 °C
Nord
3.7 Km/h
Dew point 12 °C
Umidità 82 %
Visibilità 10 Km
Il sole sorge alle ore 07:09
Il sole tramonta alle ore 20:33
| Data e Ora | Cielo e Fenomeni | T °C | DP °C | Um. % | Pres. hPa | Vis. km | Vento km/h | |
|---|---|---|---|---|---|---|---|---|
| Ieri h: 23:30 | Sereno | 15 | 12 | 82 | 1022 | 10 | N 3.7 | |
| Ieri h: 23:00 | Sereno | 15 | 12 | 82 | 1022 | 10 | N 1.8 | |
| Ieri h: 22:30 | Sereno | 16 | 12 | 77 | 1022 | 10 | N/NE 11.1 | |
| Ieri h: 22:00 | Sereno | 17 | 12 | 72 | 1022 | 10 | N 16.7 | |
| Ieri h: 21:30 | Sereno | 17 | 11 | 67 | 1022 | 10 | N/NO 14.8 | |
| Ieri h: 21:00 | Sereno | 17 | 11 | 67 | 1021 | 10 | N/NO 13 | |
| Ieri h: 20:30 | Sereno | 18 | 11 | 63 | 1021 | 10 | N/NO 11.1 | |
| Ieri h: 20:00 | Sereno | 20 | 11 | 56 | 1021 | 10 | N/NO 11.1 | |
| Ieri h: 19:30 | Sereno | 22 | 10 | 46 | 1021 | 10 | NO 11.1 | |
| Ieri h: 19:00 | Sereno | 23 | 9 | 40 | 1021 | 10 | O/NO 13 | |
| Ieri h: 18:30 | Sereno | 23 | 10 | 43 | 1021 | 10 | N/NO 13 | |
| Ieri h: 18:00 | Sereno | 23 | 10 | 43 | 1021 | 10 | NO 14.8 | |
| Ieri h: 17:30 | Sereno | 23 | 10 | 43 | 1021 | 10 | N/NO 14.8 | |
| Ieri h: 17:00 | Sereno | 24 | 10 | 41 | 1021 | 10 | NO 9.3 | |
| Ieri h: 16:30 | Sereno | 23 | 11 | 46 | 1021 | 10 | N 5.5 | |
| Ieri h: 16:00 | Sereno | 23 | 10 | 43 | 1021 | 10 | N/NO 9.3 | |
| Ieri h: 15:30 | Sereno | 22 | 10 | 46 | 1021 | 10 | O/NO 11.1 | |
| Ieri h: 15:00 | Nuvoloso | 23 | 10 | 43 | 1022 | 10 | O/NO 9.3 | |
| Ieri h: 14:30 | Sereno | 22 | 11 | 49 | 1022 | 10 | N 5.5 | |
| Ieri h: 14:00 | Nuvoloso | 22 | 11 | 49 | 1022 | 10 | NO 13 | |
| Ieri h: 13:30 | Nuvoloso | 22 | 11 | 49 | 1022 | 10 | O/NO 13 | |
| Ieri h: 13:00 | Nuvoloso | 21 | 11 | 52 | 1022 | 10 | O/NO 11.1 | |
| Ieri h: 12:30 | Sereno | 20 | 10 | 52 | 1022 | 10 | O 11.1 | |
| Ieri h: 12:00 | Poco Nuvoloso | 20 | 11 | 56 | 1023 | 10 | O/NO 14.8 | |
| Ieri h: 11:30 | Poco Nuvoloso | 20 | 13 | 64 | 1023 | 10 | NO 14.8 | |
| Ieri h: 11:00 | Molto Nuvoloso | 19 | 13 | 68 | 1022 | 10 | NO 14.8 | |
| Ieri h: 10:30 | Sereno | 18 | 14 | 77 | 1022 | 10 | O 7.4 | |
| Ieri h: 10:00 | Sereno | 17 | 14 | 82 | 1022 | 10 | O 9.3 | |
| Ieri h: 09:30 | Sereno | 16 | 14 | 87 | 1022 | 10 | N 5.5 | |
| Ieri h: 09:00 | Sereno | 14 | 13 | 93 | 1022 | 10 | N 5.5 | |
| Ieri h: 08:30 | Sereno | 14 | 13 | 93 | 1022 | 10 | O/SO 7.4 | |
| Ieri h: 08:00 | Sereno | 12 | 12 | 100 | 1022 | 10 | O/SO 9.3 | |
| Ieri h: 07:30 | Sereno | 12 | 12 | 100 | 1021 | 10 | O/SO 9.3 | |
| Ieri h: 07:00 | Sereno | 12 | 11 | 93 | 1021 | 10 | N 5.5 | |
| Ieri h: 06:30 | Sereno | 12 | 11 | 93 | 1021 | 10 | N 3.7 | |
| Ieri h: 06:00 | Sereno | 13 | 12 | 93 | 1021 | 10 | N 1.8 | |
| Ieri h: 05:30 | Sereno | 12 | 12 | 100 | 1021 | 10 | N 5.5 | |
| Ieri h: 05:00 | Sereno | 13 | 12 | 93 | 1021 | 10 | N 3.7 | |
| Ieri h: 04:30 | Sereno | 14 | 13 | 93 | 1021 | 10 | N 5.5 | |
| Ieri h: 04:00 | Sereno | 13 | 13 | 100 | 1021 | 10 | N 5.5 | |
| Ieri h: 03:30 | Sereno | 13 | 13 | 100 | 1021 | 10 | N 5.5 | |
| Ieri h: 03:00 | Sereno | 13 | 12 | 93 | 1021 | 10 | N 3.7 | |
| Ieri h: 02:30 | Sereno | 12 | 12 | 100 | 1021 | 10 | N 0 | |
| Ieri h: 02:00 | Sereno | 13 | 12 | 93 | 1021 | 10 | N 0 | |
| Ieri h: 01:30 | Sereno | 13 | 12 | 93 | 1021 | 10 | N 0 | |
| Ieri h: 01:00 | Sereno | 13 | 12 | 93 | 1021 | 10 | N 1.8 | |



